Fosston, MN

9:29 PM CDT on June 24, 2017 (GMT -0500)
Fosston Municipal

Weather History for KFSE - April, 2013

Change the Weather History Date:

Tuesday, April 2, 2013

  Actual Average Record
Temperature  
Mean Temperature 17 °F -  
Max Temperature 33 °F 42 °F 64 °F (1981)
Min Temperature 1 °F 22 °F -5 °F (1954)
Degree Days  
Heating Degree Days 48    
Moisture  
Dew Point 7 °F    
Average Humidity 70    
Maximum Humidity 92    
Minimum Humidity 35    
Precipitation  
Precipitation 0.00 in - - ()
Sea Level Pressure  
Sea Level Pressure 30.30 in    
Wind  
Wind Speed 2 mph (WSW)    
Max Wind Speed 9 mph    
Max Gust Speed -    
Visibility 10 miles    
Events Snow    
Averages and records for this station are not official NWS values.
T = Trace of Precipitation, MM = Missing Value Source: NWS Daily Summary

Daily Weather History Graph

Daily Weather History Graph

Search for Another Location

Airport or City:

Trip Planner

Search our weather history database for the weather conditions in past years. The results will help you decide how hot, cold, wet, or windy it might be!

Date:

Astronomy

Apr. 02, 2013 Rise Set
Actual Time 6:59 AM CDT 7:54 PM CDT
Civil Twilight 6:27 AM CDT 8:26 PM CDT
Nautical Twilight 5:50 AM CDT 9:03 PM CDT
Astronomical Twilight 5:11 AM CDT 9:43 PM CDT
Moon 2:17 AM CDT (4/2) 11:34 AM CDT (4/2)
Length of Visible Light 13h 58m
Length of Day
12h 55m
Waning Gibbous, 55% of the Moon is Illuminated
Apr 2
Waning Gibbous
Apr 2
Last Quarter
Apr 10
New
Apr 18
First Quarter
Apr 25
Full

Hourly Weather History & Observations

Time (CDT) Temp. Windchill Dew Point Humidity Pressure Visibility Wind Dir Wind Speed Gust Speed Precip Events Conditions
12:15 AM 6.8 °F - 3.2 °F 85% 30.23 in 10.0 mi Calm Calm - N/A   Clear
12:35 AM 6.8 °F - 3.2 °F 85% 30.22 in 10.0 mi Calm Calm - N/A   Clear
12:55 AM 6.8 °F - 3.2 °F 85% 30.22 in 10.0 mi Calm Calm - N/A   Clear
1:15 AM 6.8 °F - 5.0 °F 92% 30.23 in 10.0 mi Calm Calm - N/A   Clear
1:35 AM 6.8 °F - 3.2 °F 85% 30.23 in 10.0 mi Calm Calm - N/A   Clear
1:55 AM 5.0 °F - 1.4 °F 85% 30.23 in 10.0 mi Calm Calm - N/A   Clear
2:15 AM 5.0 °F - 1.4 °F 85% 30.23 in 10.0 mi Calm Calm - N/A   Clear
2:35 AM 5.0 °F -5.6 °F 3.2 °F 92% 30.24 in 10.0 mi South 5.8 mph - N/A   Clear
2:55 AM 6.8 °F -2.0 °F 3.2 °F 85% 30.24 in 10.0 mi South 4.6 mph - N/A   Clear
3:15 AM 5.0 °F -4.1 °F 1.4 °F 85% 30.24 in 10.0 mi South 4.6 mph - N/A   Clear
3:35 AM 3.2 °F -7.8 °F 1.4 °F 92% 30.24 in 10.0 mi South 5.8 mph - N/A   Clear
3:55 AM 3.2 °F -4.2 °F -0.4 °F 85% 30.24 in 10.0 mi South 3.5 mph - N/A   Clear
4:15 AM 3.2 °F -4.2 °F -0.4 °F 85% 30.24 in 10.0 mi SSW 3.5 mph - N/A   Clear
4:35 AM 1.4 °F -6.2 °F -0.4 °F 92% 30.24 in 10.0 mi South 3.5 mph - N/A   Clear
4:55 AM 1.4 °F - -0.4 °F 92% 30.25 in 10.0 mi Calm Calm - N/A   Clear
5:15 AM 1.4 °F -6.2 °F -0.4 °F 92% 30.25 in 10.0 mi South 3.5 mph - N/A   Clear
5:35 AM 3.2 °F -4.2 °F 1.4 °F 92% 30.26 in 10.0 mi South 3.5 mph - N/A   Clear
5:55 AM 3.2 °F -4.2 °F -0.4 °F 85% 30.26 in 10.0 mi South 3.5 mph - N/A   Scattered Clouds
6:15 AM 3.2 °F -4.2 °F -0.4 °F 85% 30.26 in 10.0 mi South 3.5 mph - N/A   Scattered Clouds
6:35 AM 3.2 °F -4.2 °F 1.4 °F 92% 30.26 in 10.0 mi South 3.5 mph - N/A   Unknown
6:55 AM 3.2 °F - 1.4 °F 92% 30.26 in 10.0 mi Calm Calm - N/A   Clear
7:15 AM 3.2 °F - -0.4 °F 85% 30.27 in 10.0 mi Calm Calm - N/A   Scattered Clouds
7:35 AM 3.2 °F - -0.4 °F 85% 30.27 in 7.0 mi Calm Calm - N/A   Scattered Clouds
7:55 AM 3.2 °F - 1.4 °F 92% 30.28 in 7.0 mi Calm Calm - N/A   Clear
8:15 AM 3.2 °F - 1.4 °F 92% 30.29 in 7.0 mi Calm Calm - N/A Snow Light Snow
8:35 AM 6.8 °F - 3.2 °F 85% 30.30 in 10.0 mi Calm Calm - N/A   Clear
8:55 AM 8.6 °F - 6.8 °F 92% 30.30 in 10.0 mi Calm Calm - N/A   Clear
9:35 AM 12.2 °F - 8.6 °F 85% 30.31 in 10.0 mi Calm Calm - N/A   Clear
9:55 AM 14.0 °F - 8.6 °F 79% 30.31 in 10.0 mi Calm Calm - N/A   Clear
10:15 AM 15.8 °F - 10.4 °F 79% 30.32 in 7.0 mi Calm Calm - N/A   Clear
10:35 AM 19.4 °F - 12.2 °F 74% 30.32 in 10.0 mi Calm Calm - N/A   Clear
10:55 AM 19.4 °F - 10.4 °F 68% 30.32 in 10.0 mi Calm Calm - N/A   Clear
11:15 AM 21.2 °F - 12.2 °F 68% 30.33 in 10.0 mi Calm Calm - N/A   Clear
11:35 AM 23.0 °F - 14.0 °F 68% 30.33 in 10.0 mi Calm Calm - N/A   Clear
11:55 AM 24.8 °F - 12.2 °F 59% 30.33 in 10.0 mi Calm Calm - N/A   Clear
12:15 PM 28.4 °F - 12.2 °F 51% 30.33 in 10.0 mi Calm Calm - N/A   Clear
12:35 PM 30.2 °F - 15.8 °F 55% 30.34 in 10.0 mi Calm Calm - N/A   Clear
12:55 PM 30.2 °F - 15.8 °F 55% 30.34 in 10.0 mi Calm Calm - N/A   Clear
1:15 PM 30.2 °F 26.7 °F 15.8 °F 55% 30.34 in 10.0 mi SSW 3.5 mph - N/A   Clear
1:35 PM 30.2 °F - 15.8 °F 55% 30.34 in 10.0 mi Calm Calm - N/A   Clear
1:55 PM 32.0 °F - 15.8 °F 51% 30.34 in 10.0 mi Calm Calm - N/A   Clear
2:15 PM 33.8 °F 27.7 °F 12.2 °F 41% 30.34 in 10.0 mi WNW 6.9 mph - N/A   Clear
2:35 PM 33.8 °F 27.7 °F 12.2 °F 41% 30.34 in 10.0 mi NNW 6.9 mph - N/A   Clear
2:55 PM 33.8 °F 27.7 °F 12.2 °F 41% 30.34 in 10.0 mi NNW 6.9 mph - N/A   Clear
3:15 PM 33.8 °F 27.7 °F 8.6 °F 35% 30.34 in 10.0 mi NW 6.9 mph - N/A   Clear
3:35 PM 33.8 °F 27.7 °F 10.4 °F 38% 30.33 in 10.0 mi NNW 6.9 mph - N/A   Clear
3:55 PM 33.8 °F 27.7 °F 8.6 °F 35% 30.33 in 10.0 mi WNW 6.9 mph - N/A   Clear
4:15 PM 33.8 °F 26.4 °F 10.4 °F 38% 30.33 in 10.0 mi NNW 9.2 mph - N/A   Clear
4:35 PM 33.8 °F 27.0 °F 12.2 °F 41% 30.33 in 10.0 mi NNW 8.1 mph - N/A   Clear
4:48 PM 33.8 °F 26.4 °F 12.2 °F 41% 30.33 in 10.0 mi NNW 9.2 mph - N/A   Clear
5:21 PM 33.8 °F 26.4 °F 12.2 °F 41% 30.34 in 10.0 mi NNW 9.2 mph - N/A   Clear
5:35 PM 32.0 °F 25.6 °F 12.2 °F 44% 30.34 in 10.0 mi NNW 6.9 mph - N/A   Clear
5:55 PM 32.0 °F 24.8 °F 12.2 °F 44% 30.34 in 10.0 mi NNW 8.1 mph - N/A   Clear
6:15 PM 30.2 °F 24.3 °F 14.0 °F 51% 30.34 in 10.0 mi NW 5.8 mph - N/A   Clear
6:35 PM 30.2 °F - 14.0 °F 51% 30.34 in 10.0 mi Calm Calm - N/A   Clear
6:55 PM 28.4 °F - 12.2 °F 51% 30.34 in 10.0 mi Calm Calm - N/A   Clear
7:15 PM 26.6 °F - 12.2 °F 55% 30.34 in 10.0 mi Calm Calm - N/A   Clear
7:35 PM 24.8 °F - 10.4 °F 54% 30.33 in 10.0 mi Calm Calm - N/A   Clear
7:55 PM 21.2 °F - 10.4 °F 63% 30.33 in 10.0 mi Calm Calm - N/A   Clear
8:15 PM 19.4 °F - 10.4 °F 68% 30.33 in 10.0 mi Calm Calm - N/A   Clear
8:35 PM 17.6 °F - 8.6 °F 68% 30.32 in 10.0 mi Calm Calm - N/A   Clear
8:55 PM 17.6 °F - 8.6 °F 68% 30.33 in 10.0 mi Calm Calm - N/A   Clear
9:15 PM 15.8 °F - 6.8 °F 68% 30.33 in 10.0 mi Calm Calm - N/A   Clear
9:35 PM 14.0 °F - 6.8 °F 73% 30.33 in 10.0 mi Calm Calm - N/A   Clear
9:55 PM 12.2 °F - 5.0 °F 73% 30.33 in 10.0 mi Calm Calm - N/A   Clear
10:15 PM 10.4 °F - 5.0 °F 79% 30.33 in 10.0 mi Calm Calm - N/A   Clear
10:35 PM 12.2 °F - 6.8 °F 79% 30.33 in 10.0 mi Calm Calm - N/A   Clear
10:55 PM 10.4 °F - 3.2 °F 73% 30.33 in 10.0 mi Calm Calm - N/A   Clear
11:15 PM 10.4 °F - 3.2 °F 73% 30.33 in 10.0 mi Calm Calm - N/A   Clear
11:35 PM 8.6 °F - 1.4 °F 73% 30.33 in 10.0 mi Calm Calm - N/A   Clear
11:55 PM 10.4 °F - 3.2 °F 73% 30.32 in 10.0 mi Calm Calm - N/A   Clear